User: anonymous   Login
Location: Fort Wayne
(41.1310°N, 85.1290°W)
Time: 02:54:34
(UTC-04:00)
Language:

BREEZE-M DEB (TANK) - Orbit

View from above orbital plane
View from above orbital plane
View from above satellite
View from above satellite

Ground track
Ground track

The orbit data is extracted from the following two-line orbital elements,

1 27821U 03024B   16181.39850114  .00001885  00000-0  17867-3 0  9991
2 27821  49.5629 230.7584 4957046 121.0926 296.8816  5.73315580260164
Epoch (UTC): 29 June 2016 09:33:50
Eccentricity: 0.4957046
inclination: 49.5629°
perigee height: 272 km
apogee height: 13345 km
right ascension of ascending node: 230.7584°
argument of perigee: 121.0926°
revolutions per day: 5.73315580
mean anomaly at epoch: 296.8816°
orbit number at epoch: 26016

The dashed part of the orbit path shows where the satellite is in the earth's shadow,  

DLR